Weather Roundup
Issued by NWS

Home | Current Version | Previous Version | Text Only | Print | Product List | Glossary On
Versions: 1 2 3 4 5 6 7 8 9 10 11 12 13 14 15 16 17 18 19 20 21 22 23 24 25 26 27 28 29 30 31 32 33 34 35 36 37 38 39 40 41 42 43 44 45 46 47 48 49 50
000
NZUS93 KARX 310110
HRRWXR

CURRENT HOURLY OBSERVATIONS ACROSS
MUCH OF THE UPPER MISSISSIPPI VALLEY
NATIONAL WEATHER SERVICE LA CROSSE WI
700 PM CST FRI JAN 30 2015


...SOUTHEAST MINNESOTA...


CITY           SKY/WX    TMP DP  RH WIND       PRES   REMARKS
ROCHESTER      CLEAR     21  13  71 S13       30.26F WCI   9
ROCHESTER/MAYO FAIR      23  12  63 S8        30.27F WCI  14
WINONA         PTCLDY    21  10  63 SE5       30.34S WCI  15
AUSTIN         CLEAR     25  18  74 S10       30.26F WCI  15
ALBERT LEA     CLEAR     27  21  80 S9        30.25F WCI  17
DODGE CENTER   CLEAR     25  19  80 S13       30.24F WCI  13
PRESTON        CLEAR     20  11  68 S10       30.29F WCI   9
OWATONNA       CLEAR     27  19  74 S12       30.23F WCI  16
FARIBAULT      CLEAR     27  19  74 S8        30.24S WCI  18
$$

...ELSEWHERE IN MINNESOTA...


CITY           SKY/WX    TMP DP  RH WIND       PRES   REMARKS
MINNEAPOLIS    PTCLDY    26  17  68 S8        30.24F WCI  18
INTNL FALLS    CLOUDY    13   8  81 CALM      30.14F
DULUTH         CLOUDY    14   3  61 S8        30.17S WCI   3
RED WING       CLEAR     21  12  68 SE8       30.27F WCI  12
REDWOOD FALLS  CLEAR     30  25  81 S8        30.19F WCI  22
MANKATO        CLEAR     27  19  74 S13G18    30.22S WCI  16
WORTHINGTON    CLEAR     30  25  80 SW15      30.20R WCI  19
FAIRMONT       CLEAR     28  21  74 S15       30.20F WCI  17
$$

...SOUTHWEST WISCONSIN...


CITY           SKY/WX    TMP DP  RH WIND       PRES   REMARKS
LA CROSSE      CLEAR     22   9  57 SE6       30.34F WCI  14
PRAIRIE DU CHI CLEAR     23  10  56 CALM      30.37F
BOSCOBEL       CLEAR     18   7  62 CALM      30.38F
LONE ROCK      CLEAR     17   9  70 CALM      30.38F
PLATTEVILLE    CLEAR     20  13  74 S6        30.36F WCI  12
FORT MC COY    CLEAR     12   7  80 E3        30.35F
CAMP DOUGLAS   CLEAR     10   7  87 SE5       30.34F WCI   2
VIROQUA        FAIR      19   8  63 S6        30.31F WCI  11
WIS DELLS      PTCLDY    17   8  67 CALM      30.35F
$$

...ELSEWHERE IN WISCONSIN...


CITY           SKY/WX    TMP DP  RH WIND       PRES   REMARKS
MILWAUKEE      MOCLDY    24   8  50 W7        30.40S WCI  16
MADISON        CLEAR     20   9  62 SW3       30.37F
GREEN BAY      CLOUDY    20  10  65 S6        30.36F WCI  12
EAU CLAIRE     MOCLDY    15   5  64 S7        30.29F WCI   5
BLACK RVR FLS  FAIR       7   2  81 CALM      30.33F
MEDFORD        PTCLDY    11   5  74 S6        30.26F WCI   2
WAUSAU         PTCLDY    15   5  64 S3        30.29F
WIS RAPIDS     CLEAR     15   4  61 CALM      30.34F
MARSHFIELD     CLEAR     15   3  59 SW6       30.30F WCI   6
RICE LAKE      CLOUDY    15   7  68 SE6       30.28R WCI   7
$$

...NORTHEAST IOWA...


CITY           SKY/WX    TMP DP  RH WIND       PRES   REMARKS
DECORAH        CLEAR     23  10  58 S6        30.31F WCI  16
MASON CITY     CLEAR     25  19  78 S12       30.29F WCI  14
CHARLES CITY   CLEAR     23  16  74 S9        30.32F WCI  13
OELWEIN        CLEAR     23  16  74 S8        30.35F WCI  14
$$

...ELSEWHERE IN IOWA...


CITY           SKY/WX    TMP DP  RH WIND       PRES   REMARKS
DES MOINES     FAIR      30  15  53 S7        30.35F WCI  23
IOWA CITY      CLEAR     25  16  68 SE3       30.41F
FORT DODGE     CLEAR     30  18  59 S9        30.29F WCI  22
$$

...NORTHERN ILLINOIS...


CITY           SKY/WX    TMP DP  RH WIND       PRES   REMARKS
CHICAGO-OHARE  PTCLDY    23  11  60 W6        30.41F WCI  16
CHICAGO-MIDWAY PTCLDY    27  14  58 W8        30.43S WCI  19
MOLINE         CLEAR     24  18  77 CALM      30.41F
ROCKFORD       PTCLDY    22  12  65 SW6       30.43S WCI  14
PEORIA         CLEAR     28  17  63 S3        30.44F
$$

NOTE: "FAIR" INDICATES FEW OR NO CLOUDS BELOW 12,000 FEET WITH NO
SIGNIFICANT WEATHER AND/OR OBSTRUCTIONS TO VISIBILITY. WIND
SPEEDS ARE IN MILES-PER-HOUR.



USA.gov is the U.S. government's official web portal to all federal, state and local government web resources and services.